Time,TemperatureF,DewpointF,PressureIn,WindDirection,WindDirectionDegrees,WindSpeedMPH,WindSpeedGustMPH,Humidity,HourlyPrecipIn,Conditions,Clouds,dailyrainin,SoftwareType,DateUTC
2013-01-09 00:03:00,54.0,-99.9,30.35,NNE,18,8.0,9.0,-999,-99.99,,,-99.99,,2013-01-09 05:03:00,
2013-01-09 00:12:00,54.0,-99.9,30.35,NNE,22,8.0,10.0,-999,-99.99,,,-99.99,,2013-01-09 05:12:00,
2013-01-09 00:22:00,54.0,-99.9,30.35,NNE,21,8.0,9.0,-999,-99.99,,,-99.99,,2013-01-09 05:22:00,
2013-01-09 00:33:00,54.0,-99.9,30.35,NNE,16,9.0,10.0,-999,-99.99,,,-99.99,,2013-01-09 05:33:00,
2013-01-09 00:43:00,54.0,-99.9,30.35,NNE,15,10.0,11.0,-999,-99.99,,,-99.99,,2013-01-09 05:43:00,
2013-01-09 00:53:00,54.0,-99.9,30.35,NNE,13,10.0,11.0,-999,-99.99,,,-99.99,,2013-01-09 05:53:00,
2013-01-09 01:02:00,55.0,-99.9,30.35,North,11,10.0,11.0,-999,-99.99,,,-99.99,,2013-01-09 06:02:00,
2013-01-09 01:12:00,55.0,-99.9,30.35,North,8,8.0,10.0,-999,-99.99,,,-99.99,,2013-01-09 06:12:00,
2013-01-09 01:22:00,54.0,-99.9,30.35,North,6,8.0,10.0,-999,-99.99,,,-99.99,,2013-01-09 06:22:00,
2013-01-09 01:32:00,53.0,-99.9,30.35,North,351,7.0,8.0,-999,-99.99,,,-99.99,,2013-01-09 06:32:00,
2013-01-09 01:43:00,52.0,-99.9,30.35,North,357,6.0,7.0,-999,-99.99,,,-99.99,,2013-01-09 06:43:00,
2013-01-09 01:53:00,52.0,-99.9,30.34,North,352,6.0,7.0,-999,-99.99,,,-99.99,,2013-01-09 06:53:00,
2013-01-09 02:02:00,52.0,-99.9,30.34,North,8,6.0,8.0,-999,-99.99,,,-99.99,,2013-01-09 07:02:00,
2013-01-09 02:12:00,53.0,-99.9,30.33,North,8,8.0,9.0,-999,-99.99,,,-99.99,,2013-01-09 07:12:00,
2013-01-09 02:22:00,53.0,-99.9,30.33,North,10,8.0,9.0,-999,-99.99,,,-99.99,,2013-01-09 07:22:00,
2013-01-09 02:32:00,53.0,-99.9,30.34,North,5,8.0,9.0,-999,-99.99,,,-99.99,,2013-01-09 07:32:00,
2013-01-09 02:43:00,52.0,-99.9,30.34,North,6,7.0,9.0,-999,-99.99,,,-99.99,,2013-01-09 07:43:00,
2013-01-09 02:53:00,52.0,-99.9,30.34,North,2,7.0,9.0,-999,-99.99,,,-99.99,,2013-01-09 07:53:00,
2013-01-09 03:02:00,53.0,-99.9,30.33,NNE,14,8.0,9.0,-999,-99.99,,,-99.99,,2013-01-09 08:02:00,
2013-01-09 03:12:00,53.0,-99.9,30.33,NNE,14,7.0,8.0,-999,-99.99,,,-99.99,,2013-01-09 08:12:00,
2013-01-09 03:22:00,53.0,-99.9,30.33,NNE,15,8.0,9.0,-999,-99.99,,,-99.99,,2013-01-09 08:22:00,
2013-01-09 03:32:00,53.0,-99.9,30.33,North,8,6.0,7.0,-999,-99.99,,,-99.99,,2013-01-09 08:32:00,
2013-01-09 03:43:00,53.0,-99.9,30.33,NNE,23,6.0,8.0,-999,-99.99,,,-99.99,,2013-01-09 08:43:00,
2013-01-09 03:53:00,53.0,-99.9,30.33,NNE,27,7.0,8.0,-999,-99.99,,,-99.99,,2013-01-09 08:53:00,
2013-01-09 04:03:00,53.0,-99.9,30.33,NNE,17,6.0,6.0,-999,-99.99,,,-99.99,,2013-01-09 09:03:00,
2013-01-09 04:12:00,53.0,-99.9,30.33,NNE,21,6.0,7.0,-999,-99.99,,,-99.99,,2013-01-09 09:12:00,
2013-01-09 04:22:00,53.0,-99.9,30.33,NNE,24,6.0,7.0,-999,-99.99,,,-99.99,,2013-01-09 09:22:00,
2013-01-09 04:32:00,53.0,-99.9,30.33,NNE,21,7.0,8.0,-999,-99.99,,,-99.99,,2013-01-09 09:32:00,
2013-01-09 04:42:00,54.0,-99.9,30.33,NNE,15,8.0,9.0,-999,-99.99,,,-99.99,,2013-01-09 09:42:00,
2013-01-09 04:53:00,54.0,-99.9,30.33,North,7,7.0,8.0,-999,-99.99,,,-99.99,,2013-01-09 09:53:00,
2013-01-09 05:02:00,54.0,-99.9,30.33,North,11,9.0,9.0,-999,-99.99,,,-99.99,,2013-01-09 10:02:00,
2013-01-09 05:12:00,55.0,-99.9,30.33,NNE,20,9.0,10.0,-999,-99.99,,,-99.99,,2013-01-09 10:12:00,
2013-01-09 05:22:00,55.0,-99.9,30.33,NNE,21,9.0,10.0,-999,-99.99,,,-99.99,,2013-01-09 10:22:00,
2013-01-09 05:32:00,56.0,-99.9,30.33,NNE,13,8.0,9.0,-999,-99.99,,,-99.99,,2013-01-09 10:32:00,
2013-01-09 05:42:00,56.0,-99.9,30.33,NNE,14,9.0,10.0,-999,-99.99,,,-99.99,,2013-01-09 10:42:00,
2013-01-09 05:53:00,56.0,-99.9,30.32,NNE,25,8.0,9.0,-999,-99.99,,,-99.99,,2013-01-09 10:53:00,
2013-01-09 06:02:00,56.0,-99.9,30.33,NNE,17,9.0,10.0,-999,-99.99,,,-99.99,,2013-01-09 11:02:00,
2013-01-09 06:12:00,56.0,-99.9,30.33,North,6,8.0,10.0,-999,-99.99,,,-99.99,,2013-01-09 11:12:00,
2013-01-09 06:22:00,55.0,-99.9,30.33,North,354,6.0,8.0,-999,-99.99,,,-99.99,,2013-01-09 11:22:00,
2013-01-09 06:33:00,54.0,-99.9,30.33,North,3,6.0,8.0,-999,-99.99,,,-99.99,,2013-01-09 11:33:00,
2013-01-09 06:43:00,54.0,-99.9,30.34,North,352,8.0,11.0,-999,-99.99,,,-99.99,,2013-01-09 11:43:00,
2013-01-09 06:53:00,54.0,-99.9,30.34,NNW,348,7.0,9.0,-999,-99.99,,,-99.99,,2013-01-09 11:53:00,
2013-01-09 07:03:00,54.0,-99.9,30.34,North,359,8.0,11.0,-999,-99.99,,,-99.99,,2013-01-09 12:03:00,
2013-01-09 07:13:00,54.0,-99.9,30.35,North,355,8.0,10.0,-999,-99.99,,,-99.99,,2013-01-09 12:13:00,
2013-01-09 07:23:00,55.0,-99.9,30.35,North,359,9.0,11.0,-999,-99.99,,,-99.99,,2013-01-09 12:23:00,
2013-01-09 07:33:00,54.0,-99.9,30.36,NNW,341,8.0,10.0,-999,-99.99,,,-99.99,,2013-01-09 12:33:00,
2013-01-09 07:43:00,54.0,-99.9,30.37,NNW,331,9.0,10.0,-999,-99.99,,,-99.99,,2013-01-09 12:43:00,
2013-01-09 07:53:00,54.0,-99.9,30.37,NNW,342,8.0,9.0,-999,-99.99,,,-99.99,,2013-01-09 12:53:00,
2013-01-09 08:03:00,55.0,-99.9,30.37,NNW,341,9.0,10.0,-999,-99.99,,,-99.99,,2013-01-09 13:03:00,
2013-01-09 08:12:00,55.0,-99.9,30.38,North,360,7.0,9.0,-999,-99.99,,,-99.99,,2013-01-09 13:12:00,
2013-01-09 08:23:00,55.0,-99.9,30.38,North,354,8.0,10.0,-999,-99.99,,,-99.99,,2013-01-09 13:23:00,
2013-01-09 08:33:00,55.0,-99.9,30.39,North,357,7.0,9.0,-999,-99.99,,,-99.99,,2013-01-09 13:33:00,
2013-01-09 08:43:00,56.0,-99.9,30.39,North,349,7.0,9.0,-999,-99.99,,,-99.99,,2013-01-09 13:43:00,
2013-01-09 08:53:00,56.0,-99.9,30.39,North,4,8.0,9.0,-999,-99.99,,,-99.99,,2013-01-09 13:53:00,
2013-01-09 09:03:00,56.0,-99.9,30.39,NNE,14,8.0,9.0,-999,-99.99,,,-99.99,,2013-01-09 14:03:00,
2013-01-09 09:12:00,57.0,-99.9,30.39,North,357,8.0,9.0,-999,-99.99,,,-99.99,,2013-01-09 14:12:00,
2013-01-09 09:23:00,57.0,-99.9,30.38,NNE,32,8.0,9.0,-999,-99.99,,,-99.99,,2013-01-09 14:23:00,
2013-01-09 09:33:00,56.0,-99.9,30.38,NNE,20,8.0,9.0,-999,-99.99,,,-99.99,,2013-01-09 14:33:00,
2013-01-09 09:43:00,58.0,-99.9,30.39,North,8,9.0,10.0,-999,-99.99,,,-99.99,,2013-01-09 14:43:00,
2013-01-09 09:53:00,59.0,-99.9,30.39,NNE,19,8.0,9.0,-999,-99.99,,,-99.99,,2013-01-09 14:53:00,
2013-01-09 10:04:00,59.0,-99.9,30.39,NNE,18,7.0,9.0,-999,-99.99,,,-99.99,,2013-01-09 15:04:00,
2013-01-09 10:13:00,58.0,-99.9,30.39,NNE,20,7.0,7.0,-999,-99.99,,,-99.99,,2013-01-09 15:13:00,
2013-01-09 10:23:00,58.0,-99.9,30.39,NNE,27,7.0,7.0,-999,-99.99,,,-99.99,,2013-01-09 15:23:00,
2013-01-09 10:33:00,58.0,-99.9,30.38,NE,34,8.0,8.0,-999,-99.99,,,-99.99,,2013-01-09 15:33:00,
2013-01-09 10:43:00,57.0,-99.9,30.38,NE,37,8.0,9.0,-999,-99.99,,,-99.99,,2013-01-09 15:43:00,
2013-01-09 10:53:00,56.0,-99.9,30.38,NE,50,8.0,8.0,-999,-99.99,,,-99.99,,2013-01-09 15:53:00,
2013-01-09 11:04:00,55.0,-99.9,30.38,NE,47,6.0,6.0,-999,-99.99,,,-99.99,,2013-01-09 16:04:00,
2013-01-09 11:12:00,55.0,-99.9,30.37,NE,50,7.0,8.0,-999,-99.99,,,-99.99,,2013-01-09 16:12:00,
2013-01-09 11:23:00,55.0,-99.9,30.37,NE,45,7.0,8.0,-999,-99.99,,,-99.99,,2013-01-09 16:23:00,
2013-01-09 11:34:00,55.0,-99.9,30.37,NE,37,6.0,7.0,-999,-99.99,,,-99.99,,2013-01-09 16:34:00,
2013-01-09 11:43:00,55.0,-99.9,30.36,NE,41,7.0,8.0,-999,-99.99,,,-99.99,,2013-01-09 16:43:00,
2013-01-09 11:53:00,55.0,-99.9,30.36,NNE,33,7.0,7.0,-999,-99.99,,,-99.99,,2013-01-09 16:53:00,
2013-01-09 12:03:00,55.0,-99.9,30.36,NE,39,7.0,8.0,-999,-99.99,,,-99.99,,2013-01-09 17:03:00,
2013-01-09 12:12:00,55.0,-99.9,30.36,NE,35,8.0,9.0,-999,-99.99,,,-99.99,,2013-01-09 17:12:00,
2013-01-09 12:23:00,56.0,-99.9,30.35,NE,36,8.0,9.0,-999,-99.99,,,-99.99,,2013-01-09 17:23:00,
2013-01-09 12:33:00,56.0,-99.9,30.35,NNE,32,9.0,9.0,-999,-99.99,,,-99.99,,2013-01-09 17:33:00,
2013-01-09 12:43:00,56.0,-99.9,30.34,NE,38,8.0,8.0,-999,-99.99,,,-99.99,,2013-01-09 17:43:00,
2013-01-09 12:53:00,56.0,-99.9,30.34,NE,43,7.0,8.0,-999,-99.99,,,-99.99,,2013-01-09 17:53:00,
2013-01-09 13:03:00,56.0,-99.9,30.34,NE,42,6.0,6.0,-999,-99.99,,,-99.99,,2013-01-09 18:03:00,
2013-01-09 13:13:00,56.0,-99.9,30.34,NE,53,5.0,6.0,-999,-99.99,,,-99.99,,2013-01-09 18:13:00,
2013-01-09 13:24:00,56.0,-99.9,30.34,NE,46,5.0,6.0,-999,-99.99,,,-99.99,,2013-01-09 18:24:00,
2013-01-09 13:33:00,56.0,-99.9,30.34,NE,39,6.0,6.0,-999,-99.99,,,-99.99,,2013-01-09 18:33:00,
2013-01-09 13:53:00,56.0,-99.9,30.34,NNE,30,6.0,7.0,-999,-99.99,,,-99.99,,2013-01-09 18:53:00,
2013-01-09 14:03:00,56.0,-99.9,30.33,NNE,28,6.0,7.0,-999,-99.99,,,-99.99,,2013-01-09 19:03:00,
2013-01-09 14:13:00,56.0,-99.9,30.33,NNE,27,8.0,9.0,-999,-99.99,,,-99.99,,2013-01-09 19:13:00,
2013-01-09 14:23:00,57.0,-99.9,30.33,NNE,31,9.0,9.0,-999,-99.99,,,-99.99,,2013-01-09 19:23:00,
2013-01-09 14:33:00,56.0,-99.9,30.34,NE,42,7.0,8.0,-999,-99.99,,,-99.99,,2013-01-09 19:33:00,
2013-01-09 14:43:00,56.0,-99.9,30.33,NE,40,7.0,7.0,-999,-99.99,,,-99.99,,2013-01-09 19:43:00,
2013-01-09 14:53:00,56.0,-99.9,30.34,NE,40,7.0,7.0,-999,-99.99,,,-99.99,,2013-01-09 19:53:00,
2013-01-09 15:03:00,57.0,-99.9,30.34,NNE,26,7.0,8.0,-999,-99.99,,,-99.99,,2013-01-09 20:03:00,
2013-01-09 15:12:00,57.0,-99.9,30.35,NNE,30,8.0,8.0,-999,-99.99,,,-99.99,,2013-01-09 20:12:00,
2013-01-09 15:23:00,58.0,-99.9,30.35,NNE,21,9.0,9.0,-999,-99.99,,,-99.99,,2013-01-09 20:23:00,
2013-01-09 15:33:00,58.0,-99.9,30.35,NNE,25,8.0,9.0,-999,-99.99,,,-99.99,,2013-01-09 20:33:00,
2013-01-09 15:43:00,58.0,-99.9,30.35,NNE,31,6.0,7.0,-999,-99.99,,,-99.99,,2013-01-09 20:43:00,
2013-01-09 15:53:00,58.0,-99.9,30.35,NE,47,5.0,5.0,-999,-99.99,,,-99.99,,2013-01-09 20:53:00,
2013-01-09 16:04:00,58.0,-99.9,30.35,NE,46,5.0,6.0,-999,-99.99,,,-99.99,,2013-01-09 21:04:00,
2013-01-09 16:13:00,58.0,-99.9,30.35,NNE,33,4.0,4.0,-999,-99.99,,,-99.99,,2013-01-09 21:13:00,
2013-01-09 16:23:00,58.0,-99.9,30.35,NNE,33,4.0,5.0,-999,-99.99,,,-99.99,,2013-01-09 21:23:00,
2013-01-09 16:33:00,58.0,-99.9,30.35,NE,46,5.0,6.0,-999,-99.99,,,-99.99,,2013-01-09 21:33:00,
2013-01-09 16:43:00,58.0,-99.9,30.35,NE,46,6.0,6.0,-999,-99.99,,,-99.99,,2013-01-09 21:43:00,
2013-01-09 16:53:00,58.0,-99.9,30.35,NE,41,6.0,6.0,-999,-99.99,,,-99.99,,2013-01-09 21:53:00,
2013-01-09 17:03:00,59.0,-99.9,30.35,NNE,31,6.0,7.0,-999,-99.99,,,-99.99,,2013-01-09 22:03:00,
2013-01-09 17:12:00,60.0,-99.9,30.36,NNE,33,6.0,6.0,-999,-99.99,,,-99.99,,2013-01-09 22:12:00,
2013-01-09 17:23:00,60.0,-99.9,30.36,NNE,28,5.0,6.0,-999,-99.99,,,-99.99,,2013-01-09 22:23:00,
2013-01-09 17:33:00,60.0,-99.9,30.36,NNE,26,6.0,6.0,-999,-99.99,,,-99.99,,2013-01-09 22:33:00,
2013-01-09 17:43:00,60.0,-99.9,30.36,NNE,23,5.0,5.0,-999,-99.99,,,-99.99,,2013-01-09 22:43:00,
2013-01-09 17:53:00,60.0,-99.9,30.36,NE,44,5.0,7.0,-999,-99.99,,,-99.99,,2013-01-09 22:53:00,
2013-01-09 18:03:00,60.0,-99.9,30.36,NE,40,4.0,5.0,-999,-99.99,,,-99.99,,2013-01-09 23:03:00,
2013-01-09 18:13:00,60.0,-99.9,30.36,ENE,71,4.0,5.0,-999,-99.99,,,-99.99,,2013-01-09 23:13:00,
2013-01-09 18:23:00,59.0,-99.9,30.36,ENE,67,3.0,4.0,-999,-99.99,,,-99.99,,2013-01-09 23:23:00,
2013-01-09 18:33:00,59.0,-99.9,30.35,ENE,74,5.0,6.0,-999,-99.99,,,-99.99,,2013-01-09 23:33:00,
2013-01-09 18:43:00,58.0,-99.9,30.36,East,80,3.0,4.0,-999,-99.99,,,-99.99,,2013-01-09 23:43:00,
2013-01-09 18:53:00,58.0,-99.9,30.36,East,89,3.0,4.0,-999,-99.99,,,-99.99,,2013-01-09 23:53:00,
2013-01-09 19:03:00,58.0,-99.9,30.37,ENE,62,3.0,4.0,-999,-99.99,,,-99.99,,2013-01-10 00:03:00,
2013-01-09 19:12:00,58.0,-99.9,30.37,ENE,58,3.0,4.0,-999,-99.99,,,-99.99,,2013-01-10 00:12:00,
2013-01-09 19:22:00,58.0,-99.9,30.37,ENE,75,2.0,3.0,-999,-99.99,,,-99.99,,2013-01-10 00:22:00,
2013-01-09 19:33:00,58.0,-99.9,30.37,East,89,2.0,3.0,-999,-99.99,,,-99.99,,2013-01-10 00:33:00,
2013-01-09 19:43:00,58.0,-99.9,30.36,ENE,63,2.0,3.0,-999,-99.99,,,-99.99,,2013-01-10 00:43:00,
2013-01-09 19:53:00,58.0,-99.9,30.36,East,80,2.0,3.0,-999,-99.99,,,-99.99,,2013-01-10 00:53:00,
2013-01-09 20:03:00,58.0,-99.9,30.36,East,86,2.0,3.0,-999,-99.99,,,-99.99,,2013-01-10 01:03:00,
2013-01-09 20:12:00,58.0,-99.9,30.36,ENE,69,3.0,4.0,-999,-99.99,,,-99.99,,2013-01-10 01:12:00,
2013-01-09 20:22:00,58.0,-99.9,30.36,ENE,61,2.0,2.0,-999,-99.99,,,-99.99,,2013-01-10 01:22:00,
2013-01-09 20:33:00,58.0,-99.9,30.36,ESE,112,2.0,2.0,-999,-99.99,,,-99.99,,2013-01-10 01:33:00,
2013-01-09 20:43:00,58.0,-99.9,30.36,ESE,122,3.0,3.0,-999,-99.99,,,-99.99,,2013-01-10 01:43:00,
2013-01-09 20:53:00,58.0,-99.9,30.37,SE,127,0.0,1.0,-999,-99.99,,,-99.99,,2013-01-10 01:53:00,
2013-01-09 21:03:00,58.0,-99.9,30.37,North,-999,-999.0,-999.0,-999,-99.99,,,-99.99,,2013-01-10 02:03:00,
2013-01-09 21:13:00,58.0,-99.9,30.37,South,179,3.0,4.0,-999,-99.99,,,-99.99,,2013-01-10 02:13:00,
2013-01-09 21:22:00,58.0,-99.9,30.37,SSW,196,3.0,4.0,-999,-99.99,,,-99.99,,2013-01-10 02:22:00,
2013-01-09 21:33:00,58.0,-99.9,30.36,SSW,195,3.0,3.0,-999,-99.99,,,-99.99,,2013-01-10 02:33:00,
2013-01-09 21:43:00,58.0,-99.9,30.36,SSW,195,3.0,3.0,-999,-99.99,,,-99.99,,2013-01-10 02:43:00,
2013-01-09 21:53:00,58.0,-99.9,30.36,SSW,195,3.0,3.0,-999,-99.99,,,-99.99,,2013-01-10 02:53:00,
2013-01-09 22:03:00,59.0,-99.9,30.35,SSW,213,6.0,7.0,-999,-99.99,,,-99.99,,2013-01-10 03:03:00,
2013-01-09 22:12:00,60.0,-99.9,30.35,SW,216,5.0,6.0,-999,-99.99,,,-99.99,,2013-01-10 03:12:00,
2013-01-09 22:22:00,59.0,-99.9,30.35,WSW,242,2.0,4.0,-999,-99.99,,,-99.99,,2013-01-10 03:22:00,
2013-01-09 22:33:00,60.0,-99.9,30.36,WSW,247,5.0,6.0,-999,-99.99,,,-99.99,,2013-01-10 03:33:00,
2013-01-09 22:43:00,59.0,-99.9,30.36,WSW,258,3.0,3.0,-999,-99.99,,,-99.99,,2013-01-10 03:43:00,
2013-01-09 22:53:00,59.0,-99.9,30.36,WNW,294,3.0,3.0,-999,-99.99,,,-99.99,,2013-01-10 03:53:00,
2013-01-09 23:03:00,59.0,-99.9,30.36,NW,307,4.0,4.0,-999,-99.99,,,-99.99,,2013-01-10 04:03:00,
2013-01-09 23:12:00,59.0,-99.9,30.36,West,263,3.0,4.0,-999,-99.99,,,-99.99,,2013-01-10 04:12:00,
2013-01-09 23:22:00,60.0,-99.9,30.37,WNW,292,4.0,4.0,-999,-99.99,,,-99.99,,2013-01-10 04:22:00,
2013-01-09 23:32:00,58.0,-99.9,30.37,NW,312,5.0,5.0,-999,-99.99,,,-99.99,,2013-01-10 04:32:00,
2013-01-09 23:43:00,58.0,-99.9,30.37,NW,322,4.0,4.0,-999,-99.99,,,-99.99,,2013-01-10 04:43:00,
2013-01-09 23:53:00,59.0,-99.9,30.37,NW,310,5.0,5.0,-999,-99.99,,,-99.99,,2013-01-10 04:53:00,